| time (UTC) | temp F | wind direction | speed knots | gust knots | rain 1hr in | rain 24hr in | rain mn in | humidity % | barometer mb |
| 20260906220048 | 84 | 356 | 0.0 | 7.8 | 0.00 | 0.00 | 0.00 | 24 | 1012.3 |
| 20260906214549 | 84 | 353 | 1.7 | 8.7 | 0.00 | 0.00 | 0.00 | 26 | 1012.4 |
| 20260906213055 | 84 | 321 | 0.0 | 7.0 | 0.00 | 0.00 | 0.00 | 27 | 1012.4 |
| 20260906211548 | 83 | 268 | 1.7 | 7.0 | 0.00 | 0.00 | 0.00 | 28 | 1012.5 |
| 20260906210049 | 83 | 236 | 2.6 | 8.7 | 0.00 | 0.00 | 0.00 | 28 | 1012.5 |
| 20260906204520 | 82 | 263 | 1.7 | 6.1 | 0.00 | 0.00 | 0.00 | 29 | 1012.5 |
| 20260906203028 | 82 | 281 | 3.5 | 9.6 | 0.00 | 0.00 | 0.00 | 30 | 1012.6 |
| 20260906201612 | 82 | 349 | 0.9 | 9.6 | 0.00 | 0.00 | 0.00 | 32 | 1012.7 |
| 20260906200045 | 81 | 315 | 1.7 | 9.6 | 0.00 | 0.00 | 0.00 | 31 | 1012.8 |
| 20260906194554 | 80 | 224 | 0.9 | 7.0 | 0.00 | 0.00 | 0.00 | 29 | 1013.0 |
| 20260906193045 | 80 | 359 | 0.0 | 7.0 | 0.00 | 0.00 | 0.00 | 32 | 1013.1 |
| 20260906191543 | 78 | 332 | 0.0 | 7.0 | 0.00 | 0.00 | 0.00 | 39 | 1013.2 |
| 20260906190045 | 77 | 312 | 0.9 | 6.1 | 0.00 | 0.00 | 0.00 | 41 | 1013.3 |
| 20260906184543 | 76 | 334 | 0.9 | 6.1 | 0.00 | 0.00 | 0.00 | 44 | 1013.4 |
| 20260906183053 | 75 | 231 | 0.0 | 5.2 | 0.00 | 0.00 | 0.00 | 47 | 1013.6 |
| 20260906181548 | 74 | 3 | 0.0 | 6.1 | 0.00 | 0.00 | 0.00 | 48 | 1013.6 |
| 20260906180043 | 72 | 326 | 0.0 | 3.5 | 0.00 | 0.00 | 0.00 | 52 | 1013.7 |
| 20260906174554 | 72 | 268 | 1.7 | 6.1 | 0.00 | 0.00 | 0.00 | 53 | 1013.8 |
| 20260906173045 | 71 | 315 | 0.0 | 4.3 | 0.00 | 0.00 | 0.00 | 51 | 1013.9 |
| 20260906171544 | 71 | 342 | 0.0 | 3.5 | 0.00 | 0.00 | 0.00 | 52 | 1013.7 |
| 20260906170115 | 70 | 309 | 0.9 | 4.3 | 0.00 | 0.00 | 0.00 | 54 | 1013.7 |
| 20260906164615 | 69 | 268 | 1.7 | 5.2 | 0.00 | 0.00 | 0.00 | 56 | 1013.7 |
| 20260906163115 | 68 | 208 | 0.0 | 3.5 | 0.00 | 0.00 | 0.00 | 59 | 1013.8 |
| 20260906161612 | 67 | 211 | 0.0 | 5.2 | 0.00 | 0.00 | 0.00 | 62 | 1013.9 |
| 20260906160112 | 66 | 293 | 0.0 | 2.6 | 0.00 | 0.00 | 0.00 | 64 | 1013.9 |
| 20260906154616 | 65 | 248 | 0.9 | 3.5 | 0.00 | 0.00 | 0.00 | 66 | 1013.9 |
| 20260906153130 | 63 | 202 | 0.0 | 4.3 | 0.00 | 0.00 | 0.00 | 66 | 1013.9 |
| 20260906151612 | 62 | 300 | 0.0 | 5.2 | 0.00 | 0.00 | 0.00 | 66 | 1013.9 |
| 20260906150016 | 62 | 246 | 0.0 | 0.0 | 0.00 | 0.00 | 0.00 | 68 | 1014.0 |
| 20260906144512 | 61 | 245 | 0.0 | 0.0 | 0.00 | 0.00 | 0.00 | 71 | 1013.9 |
| 20260906143011 | 59 | 245 | 0.0 | 0.0 | 0.00 | 0.00 | 0.00 | 75 | 1013.7 |
| 20260906141526 | 58 | 245 | 0.0 | 0.9 | 0.00 | 0.00 | 0.00 | 78 | 1013.5 |
| 20260906140035 | 56 | 232 | 0.0 | 0.9 | 0.00 | 0.00 | 0.00 | 79 | 1013.3 |
| 20260906134526 | 56 | 236 | 0.0 | 0.0 | 0.00 | 0.00 | 0.00 | 80 | 1013.2 |
| 20260906133107 | 56 | 237 | 0.0 | 0.0 | 0.00 | 0.00 | 0.00 | 79 | 1013.1 |
| 20260906131611 | 56 | 238 | 0.0 | 0.9 | 0.00 | 0.00 | 0.00 | 78 | 1012.9 |
| 20260906130111 | 57 | 230 | 0.0 | 0.9 | 0.00 | 0.00 | 0.00 | 78 | 1012.8 |
| 20260906124613 | 56 | 248 | 0.0 | 0.0 | 0.00 | 0.00 | 0.00 | 79 | 1012.8 |
| 20260906123113 | 56 | 247 | 0.0 | 0.0 | 0.00 | 0.00 | 0.00 | 76 | 1012.9 |
| 20260906121611 | 56 | 247 | 0.0 | 0.0 | 0.00 | 0.00 | 0.00 | 76 | 1012.9 |
| 20260906120113 | 55 | 247 | 0.0 | 0.0 | 0.00 | 0.00 | 0.00 | 78 | 1012.8 |
| 20260906114512 | 55 | 247 | 0.0 | 0.0 | 0.00 | 0.00 | 0.00 | 76 | 1012.7 |
| 20260906113013 | 56 | 247 | 0.0 | 0.0 | 0.00 | 0.00 | 0.00 | 74 | 1012.7 |
| 20260906111511 | 56 | 247 | 0.0 | 0.0 | 0.00 | 0.00 | 0.00 | 74 | 1012.7 |
| 20260906110027 | 56 | 247 | 0.0 | 0.0 | 0.00 | 0.00 | 0.00 | 73 | 1012.7 |
| 20260906104526 | 57 | 247 | 0.0 | 0.0 | 0.00 | 0.00 | 0.00 | 72 | 1012.6 |
| 20260906103026 | 58 | 247 | 0.0 | 0.0 | 0.00 | 0.00 | 0.00 | 73 | 1012.5 |
| 20260906101526 | 58 | 247 | 0.0 | 0.0 | 0.00 | 0.00 | 0.00 | 74 | 1012.4 |
| 20260906100025 | 57 | 248 | 0.0 | 0.0 | 0.00 | 0.00 | 0.00 | 73 | 1012.5 |
| 20260906094525 | 58 | 248 | 0.0 | 1.7 | 0.00 | 0.00 | 0.00 | 73 | 1012.7 |
| 20260906093042 | 58 | 255 | 0.0 | 0.0 | 0.00 | 0.00 | 0.00 | 73 | 1012.8 |
| 20260906091525 | 58 | 254 | 0.0 | 0.0 | 0.00 | 0.00 | 0.00 | 72 | 1012.8 |
| 20260906090040 | 59 | 258 | 0.0 | 0.0 | 0.00 | 0.00 | 0.00 | 70 | 1012.8 |
| 20260906084540 | 59 | 262 | 0.0 | 1.7 | 0.00 | 0.00 | 0.00 | 68 | 1012.9 |
| 20260906083040 | 60 | 254 | 0.0 | 0.9 | 0.00 | 0.00 | 0.00 | 65 | 1012.9 |
| 20260906081550 | 61 | 250 | 0.0 | 1.7 | 0.00 | 0.00 | 0.00 | 62 | 1012.9 |
| 20260906080040 | 61 | 248 | 0.0 | 1.7 | 0.00 | 0.00 | 0.00 | 61 | 1012.9 |
| 20260906074540 | 61 | 192 | 0.0 | 0.0 | 0.00 | 0.00 | 0.00 | 57 | 1013.0 |
| 20260906073051 | 62 | 192 | 0.0 | 0.0 | 0.00 | 0.00 | 0.00 | 57 | 1012.9 |
| 20260906071540 | 63 | 192 | 0.0 | 0.0 | 0.00 | 0.00 | 0.00 | 54 | 1012.8 |
| 20260906070046 | 63 | 192 | 0.0 | 0.9 | 0.00 | 0.00 | 0.00 | 53 | 1012.7 |
| 20260906064611 | 64 | 347 | 0.0 | 0.0 | 0.00 | 0.00 | 0.00 | 52 | 1012.8 |
| 20260906063109 | 64 | 347 | 0.0 | 0.0 | 0.00 | 0.00 | 0.00 | 52 | 1012.8 |
| 20260906061506 | 65 | 347 | 0.0 | 0.0 | 0.00 | 0.00 | 0.00 | 53 | 1012.8 |
| 20260906060009 | 66 | 347 | 0.0 | 0.0 | 0.00 | 0.00 | 0.00 | 51 | 1012.8 |
| 20260906054512 | 67 | 347 | 0.0 | 0.0 | 0.00 | 0.00 | 0.00 | 46 | 1012.8 |
| 20260906053009 | 68 | 357 | 0.0 | 5.2 | 0.00 | 0.00 | 0.00 | 44 | 1012.8 |
| 20260906051518 | 68 | 330 | 0.9 | 3.5 | 0.00 | 0.00 | 0.00 | 45 | 1012.8 |
| 20260906050024 | 69 | 338 | 0.0 | 4.3 | 0.00 | 0.00 | 0.00 | 45 | 1012.7 |
| 20260906044524 | 70 | 308 | 0.9 | 6.1 | 0.00 | 0.00 | 0.00 | 46 | 1012.6 |
| 20260906043038 | 70 | 352 | 0.0 | 3.5 | 0.00 | 0.00 | 0.00 | 46 | 1012.6 |
| 20260906041524 | 71 | 330 | 0.0 | 3.5 | 0.00 | 0.00 | 0.00 | 46 | 1012.4 |
| 20260906040052 | 72 | 341 | 0.0 | 3.5 | 0.00 | 0.00 | 0.00 | 46 | 1012.4 |
| 20260906034539 | 72 | 339 | 0.0 | 0.9 | 0.00 | 0.00 | 0.00 | 46 | 1012.3 |
| 20260906033044 | 73 | 345 | 0.0 | 2.6 | 0.00 | 0.00 | 0.00 | 44 | 1012.2 |
| 20260906031539 | 74 | 264 | 0.0 | 2.6 | 0.00 | 0.00 | 0.00 | 43 | 1012.0 |
| 20260906030104 | 75 | 331 | 0.0 | 1.7 | 0.00 | 0.00 | 0.00 | 43 | 1011.9 |
| 20260906024553 | 76 | 331 | 0.0 | 0.9 | 0.00 | 0.00 | 0.00 | 39 | 1011.7 |
| 20260906023113 | 78 | 338 | 0.0 | 3.5 | 0.00 | 0.00 | 0.00 | 33 | 1011.7 |
| 20260906021554 | 80 | 333 | 0.9 | 3.5 | 0.00 | 0.00 | 0.00 | 30 | 1011.8 |
| 20260906020054 | 82 | 316 | 0.0 | 2.6 | 0.00 | 0.00 | 0.00 | 30 | 1011.9 |
| 20260906014615 | 82 | 302 | 0.0 | 5.2 | 0.00 | 0.00 | 0.00 | 29 | 1011.9 |
| 20260906013057 | 82 | 310 | 0.0 | 4.3 | 0.00 | 0.00 | 0.00 | 29 | 1011.8 |
| 20260906011556 | 82 | 319 | 0.0 | 4.3 | 0.00 | 0.00 | 0.00 | 31 | 1011.8 |
| 20260906010053 | 82 | 283 | 0.0 | 3.5 | 0.00 | 0.00 | 0.00 | 31 | 1011.9 |
| 20260906004607 | 82 | 8 | 1.7 | 5.2 | 0.00 | 0.00 | 0.00 | 31 | 1011.9 |
| 20260906003055 | 83 | 323 | 2.6 | 9.6 | 0.00 | 0.00 | 0.00 | 31 | 1011.9 |
| 20260906001552 | 84 | 335 | 0.9 | 4.3 | 0.00 | 0.00 | 0.00 | 31 | 1011.8 |
| 20260906000105 | 85 | 45 | 1.7 | 7.8 | 0.00 | 0.00 | 0.00 | 30 | 1011.8 |
| 20260905234557 | 85 | 347 | 0.0 | 5.2 | 0.00 | 0.00 | 0.00 | 30 | 1011.9 |
| 20260905233056 | 85 | 326 | 0.0 | 1.7 | 0.00 | 0.00 | 0.00 | 30 | 1011.9 |
| 20260905231556 | 85 | 212 | 0.0 | 7.0 | 0.00 | 0.00 | 0.00 | 29 | 1012.0 |
| 20260905230053 | 84 | 281 | 0.9 | 7.0 | 0.00 | 0.00 | 0.00 | 30 | 1012.2 |
| 20260905224604 | 83 | 340 | 0.9 | 6.1 | 0.00 | 0.00 | 0.00 | 30 | 1012.3 |
| 20260905223052 | 83 | 99 | 0.9 | 6.1 | 0.00 | 0.00 | 0.00 | 31 | 1012.3 |
| 20260905221608 | 82 | 23 | 0.9 | 6.1 | 0.00 | 0.00 | 0.00 | 30 | 1012.5 |